Wind_Speed
15 16 15 16 17 18 19 19 19 19 19 19 18 18 19 19 19 20 20 20 20 20 20 20 21 22 21 21 21 22 22 21 21 21 21 21 22 22 21 20 19 19 19
15 15 16 17 17 18 19 19 20 20 20 19 19 20 20 20 20 20 21 21 21 22 22 22 21 22 22 23 23 22 22 22 22 21 21 21 21 22 22 22 21 20 20
15 16 16 17 17 18 18 18 19 19 19 19 19 20 21 20 21 21 22 22 22 22 23 23 22 23 23 23 23 23 22 22 22 22 22 21 22 22 22 22 22 22 21
15 15 16 17 17 17 18 17 18 18 18 19 20 20 20 20 22 22 22 22 22 23 22 23 23 23 24 24 24 24 24 23 23 24 24 24 24 24 24 23 23 23 23
14 15 16 16 17 17 18 18 18 18 18 19 20 21 21 21 21 22 22 22 22 23 24 23 24 24 25 25 25 25 25 25 25 25 26 26 25 26 26 25 24 25 25
14 15 16 17 17 17 18 18 19 19 19 19 20 20 21 21 21 21 22 22 23 23 24 24 24 25 25 26 26 26 27 27 26 26 27 27 27 27 27 26 26 26 26
14 14 15 16 17 17 17 18 19 19 19 19 20 20 21 21 21 22 22 21 21 22 23 25 24 24 25 26 27 27 27 28 28 28 28 28 28 28 28 27 27 28 27
13 14 14 15 15 16 17 18 17 18 18 19 19 19 19 20 20 20 20 20 21 22 22 23 24 24 25 26 27 28 28 29 29 29 29 29 29 29 28 28 29 29 29
13 14 13 13 14 15 16 16 17 18 18 18 17 17 18 19 19 20 21 21 21 22 22 23 23 24 24 25 26 27 28 29 29 30 29 30 29 29 29 29 30 30 31
13 13 13 13 14 14 14 15 16 16 17 17 17 17 18 19 20 20 21 21 22 22 22 23 23 23 24 25 27 28 28 29 29 30 30 31 30 30 30 31 31 32 32
12 13 13 13 13 14 15 15 16 16 16 16 17 18 18 19 20 21 21 20 21 22 23 23 23 24 25 25 26 27 28 29 30 30 31 31 31 31 31 31 32 32 32
12 13 13 13 14 15 15 15 15 16 16 16 17 18 18 19 19 20 20 20 21 22 23 23 23 24 25 25 25 26 28 29 30 30 31 31 32 32 32 32 33 34 34
13 13 13 15 15 15 14 15 15 16 16 17 18 18 19 19 19 19 20 20 21 22 22 23 23 24 25 25 26 26 28 29 30 30 31 32 32 32 33 33 33 33 34
13 14 14 14 15 14 14 14 15 16 17 17 17 18 19 19 19 19 20 20 21 21 22 23 24 24 25 26 27 27 27 29 30 31 31 31 32 32 33 34 34 34 34
14 14 14 15 15 14 14 15 15 16 16 17 17 18 19 18 19 20 21 21 21 22 22 23 24 24 25 26 26 27 27 27 29 30 31 32 32 33 33 34 34 34 35
14 15 15 15 15 15 15 16 16 17 17 18 18 18 19 19 20 21 21 22 22 23 23 24 24 25 26 26 26 26 27 27 28 29 30 31 32 33 33 33 34 34 35
15 15 15 15 15 15 15 16 17 18 18 19 19 19 19 20 21 22 22 22 24 24 24 25 26 26 26 26 26 26 27 28 28 29 30 30 31 32 33 33 33 34 34
15 16 16 16 16 16 16 17 17 18 18 18 18 19 19 20 21 22 23 23 24 25 25 26 27 27 26 26 26 26 27 28 29 29 29 30 30 31 32 32 32 33 34
17 17 17 17 17 16 17 17 17 18 18 18 18 19 19 20 21 22 22 23 23 24 25 26 26 27 27 27 27 27 27 28 29 29 29 30 30 30 31 31 32 33 33
17 17 17 17 17 17 17 17 17 18 18 19 19 20 20 21 21 22 22 22 23 24 24 25 26 26 27 27 26 27 27 27 28 28 29 29 29 30 30 31 31 33 33
17 18 18 18 17 17 17 18 19 19 19 20 20 20 21 22 22 21 21 22 22 23 24 25 25 25 26 26 26 26 26 26 26 26 27 28 29 29 30 31 32 32 33
18 18 19 19 18 18 19 19 19 19 19 20 21 22 22 22 22 21 21 21 22 22 22 23 23 23 24 24 25 25 26 26 26 26 27 28 28 29 30 31 32 33 34
19 19 19 19 19 19 19 19 19 20 20 21 22 23 23 23 22 22 21 20 20 20 21 21 21 21 21 22 23 24 24 24 24 24 25 26 27 27 29 30 31 32 33
20 20 20 19 19 19 20 19 19 20 20 21 22 22 22 22 21 20 20 19 19 19 19 20 20 20 21 21 22 22 22 22 23 23 24 24 25 26 27 28 29 30 31
21 20 20 20 20 20 20 20 20 20 20 21 21 21 21 21 21 20 19 20 20 20 19 19 19 19 19 20 20 21 21 22 22 22 22 23 24 25 25 26 27 27 28
21 21 21 21 21 21 21 21 21 21 21 21 21 21 21 21 21 20 20 20 19 19 19 19 19 19 19 19 19 19 19 19 20 20 21 22 23 24 24 25 25 26 27
Wind_Direction
269 267 268 269 270 272 272 270 270 271 267 265 264 263 260 260 261 259 258 258 259 260 258 256 256 253 253 252 251 251 249 247 249 247 247 248 247 246 245 245 245 245 245
271 269 269 270 271 274 274 272 272 270 269 267 265 261 261 259 261 260 261 259 259 259 258 256 255 255 255 254 253 252 250 247 246 247 246 248 247 245 245 244 245 247 247
274 272 273 274 273 275 276 274 274 272 271 269 268 265 263 262 261 262 261 262 260 259 258 256 255 254 254 255 254 253 250 248 247 247 247 248 247 245 244 244 245 246 246
275 274 275 276 273 275 279 279 277 277 272 270 270 269 267 265 265 264 262 262 261 259 258 258 256 255 254 254 253 252 249 251 249 247 249 251 248 248 246 246 247 247 247
278 276 275 276 274 274 278 279 278 278 274 271 271 270 268 267 265 265 264 263 261 260 258 258 257 256 255 254 253 252 251 251 251 250 250 251 250 249 248 248 249 248 247
284 279 275 273 274 276 278 278 279 277 276 273 272 274 271 267 264 266 264 264 263 263 259 258 257 257 257 255 252 251 252 252 252 252 251 251 250 250 248 248 249 248 248
287 283 279 276 277 278 279 280 279 276 277 275 275 274 274 270 266 267 266 267 266 265 262 259 257 258 257 255 254 253 252 252 251 252 252 251 250 250 249 248 248 248 249
284 284 283 281 279 281 283 281 280 278 277 277 277 277 276 274 270 269 269 269 268 266 263 262 260 259 259 258 256 255 255 253 252 251 252 252 251 250 250 249 249 249 249
288 286 285 285 284 285 283 281 279 278 280 277 275 279 281 278 274 271 271 269 268 266 266 264 262 261 261 261 259 257 255 254 253 252 252 252 252 251 250 249 248 248 248
293 292 292 289 293 294 290 287 283 280 280 277 279 277 279 279 276 274 273 270 268 267 268 266 264 264 264 264 262 258 255 255 254 252 253 252 252 251 250 249 249 249 249
297 294 294 294 294 293 292 290 287 283 281 278 281 279 280 279 277 276 274 272 270 270 269 268 268 268 266 267 265 260 258 257 257 255 254 253 253 251 250 249 249 250 249
300 298 297 298 297 295 292 291 288 287 285 282 283 281 280 279 278 277 275 274 274 272 270 269 269 270 269 269 267 264 262 260 258 256 255 254 254 253 251 251 251 251 250
304 303 302 301 299 298 293 290 288 290 291 286 285 283 283 281 278 277 276 274 273 272 270 270 269 271 271 271 269 268 265 261 259 257 256 255 255 254 253 252 252 251 251
304 304 304 304 303 302 296 293 291 290 290 289 287 286 285 284 279 278 277 275 272 271 271 272 270 270 271 272 271 271 269 265 260 258 258 257 256 256 255 254 252 251 251
307 309 308 306 305 301 297 297 296 294 292 292 290 289 288 284 281 280 279 279 276 275 275 275 275 275 274 274 274 274 271 267 263 260 259 258 258 256 255 255 253 252 251
307 310 309 306 304 302 300 298 297 298 297 294 293 290 288 287 283 282 281 280 279 278 276 276 277 277 275 274 274 274 271 269 266 262 260 259 258 257 257 255 253 253 252
309 313 313 308 303 302 300 299 299 299 300 298 296 293 291 289 286 284 283 282 279 277 276 276 277 276 276 275 274 273 272 271 267 263 261 259 259 258 258 256 254 252 250
305 309 311 309 304 300 299 300 300 301 303 303 300 299 298 296 293 290 287 284 280 278 277 277 277 275 275 275 274 274 272 271 268 265 263 260 259 259 258 256 254 251 250
303 305 307 307 305 301 300 301 302 303 307 307 304 301 302 300 297 294 290 287 283 280 280 279 278 276 275 275 274 274 273 270 268 266 264 261 259 258 257 256 254 253 252
303 304 306 307 306 304 302 303 303 304 305 306 305 303 302 303 301 296 292 289 285 283 281 282 280 278 278 278 276 275 274 271 268 266 264 261 258 257 257 257 256 254 253
302 303 303 304 305 306 306 306 306 305 304 304 306 305 302 304 304 300 295 291 288 286 284 284 282 280 279 278 278 276 275 274 271 270 266 264 261 260 258 257 257 255 255
302 304 304 308 307 305 303 304 306 306 306 306 307 307 305 303 304 302 297 293 289 287 285 285 283 283 281 280 277 277 277 275 273 271 269 267 265 263 262 261 259 257 256
303 305 305 307 308 306 305 305 305 306 305 305 306 307 307 306 304 303 301 298 296 293 289 287 286 285 283 283 281 279 278 277 274 273 271 269 267 266 264 263 261 259 257
300 301 304 304 305 305 306 307 306 306 306 306 307 308 308 309 308 305 303 303 302 300 296 293 291 288 286 284 283 280 277 275 274 273 272 271 268 267 267 266 263 261 259
299 298 301 303 304 304 306 306 305 305 306 307 308 309 308 308 307 306 304 304 303 302 300 298 295 292 291 290 287 281 278 276 275 274 273 272 268 267 266 265 264 262 260
297 297 298 300 301 304 305 306 305 305 305 306 307 308 308 306 305 303 303 304 304 302 301 299 298 295 293 292 289 284 280 277 277 276 273 274 270 268 266 265 264 264 262
Height
5838 5838 5838 5838 5837 5837 5837 5836 5836 5836 5836 5836 5836 5837 5837 5838 5838 5839 5839 5840 5840 5841 5841 5842 5842 5843 5844 5845 5845 5846 5847 5849 5850 5852 5854 5855 5857 5858 5860 5861 5863 5864 5866
5834 5834 5834 5834 5833 5833 5832 5831 5831 5831 5831 5831 5832 5832 5832 5832 5833 5833 5833 5834 5835 5835 5836 5836 5837 5837 5838 5839 5840 5841 5842 5844 5845 5847 5849 5850 5852 5853 5855 5857 5858 5860 5861
5830 5830 5829 5829 5829 5828 5827 5826 5825 5825 5826 5826 5827 5827 5827 5827 5827 5827 5828 5828 5829 5829 5830 5830 5831 5832 5833 5833 5834 5836 5837 5838 5840 5841 5843 5845 5847 5848 5850 5851 5853 5855 5857
5827 5826 5826 5825 5824 5823 5823 5822 5821 5821 5821 5821 5822 5822 5822 5821 5821 5821 5821 5822 5822 5823 5824 5824 5825 5826 5826 5827 5828 5830 5831 5833 5834 5836 5838 5839 5841 5843 5844 5846 5848 5850 5852
5823 5822 5821 5820 5819 5819 5818 5817 5817 5816 5816 5816 5816 5816 5816 5815 5815 5815 5815 5815 5816 5816 5817 5818 5819 5819 5820 5821 5822 5824 5826 5827 5829 5830 5832 5834 5835 5837 5839 5840 5842 5844 5846
5818 5817 5816 5816 5815 5814 5813 5812 5812 5811 5811 5810 5810 5810 5810 5809 5809 5809 5809 5809 5809 5810 5810 5811 5812 5813 5814 5815 5816 5818 5819 5821 5822 5824 5826 5827 5829 5831 5832 5834 5836 5838 5840
5814 5813 5812 5811 5810 5809 5808 5808 5807 5806 5805 5805 5804 5804 5804 5803 5803 5803 5803 5803 5803 5803 5804 5804 5805 5807 5808 5809 5810 5811 5813 5814 5816 5817 5819 5821 5822 5824 5826 5828 5830 5832 5834
5811 5809 5808 5807 5806 5805 5804 5803 5802 5802 5801 5800 5799 5799 5799 5799 5798 5798 5798 5797 5797 5798 5798 5799 5800 5800 5801 5802 5804 5805 5806 5808 5809 5811 5812 5814 5815 5817 5819 5821 5824 5826 5828
5808 5806 5805 5804 5803 5801 5800 5799 5798 5797 5796 5795 5795 5795 5794 5793 5793 5793 5792 5792 5792 5792 5792 5793 5794 5795 5795 5796 5797 5798 5799 5801 5802 5804 5805 5807 5808 5810 5812 5815 5817 5819 5821
5805 5804 5802 5801 5799 5798 5796 5795 5794 5793 5791 5791 5790 5790 5789 5788 5788 5787 5787 5786 5786 5786 5787 5787 5788 5789 5789 5790 5790 5791 5793 5794 5795 5797 5798 5799 5801 5803 5805 5807 5809 5811 5813
5802 5801 5799 5798 5796 5794 5792 5791 5790 5788 5787 5786 5785 5785 5784 5783 5782 5782 5781 5781 5780 5780 5781 5781 5782 5783 5783 5783 5784 5784 5785 5786 5788 5789 5790 5792 5793 5795 5797 5799 5801 5803 5805
5800 5798 5796 5794 5793 5791 5789 5787 5785 5784 5783 5782 5781 5780 5780 5779 5777 5777 5776 5775 5775 5775 5775 5775 5776 5776 5776 5777 5777 5777 5778 5778 5779 5781 5782 5784 5785 5787 5788 5790 5792 5794 5796
5797 5795 5793 5791 5789 5787 5785 5784 5782 5780 5779 5778 5777 5776 5775 5773 5772 5771 5771 5770 5770 5770 5770 5770 5770 5770 5770 5770 5770 5770 5770 5770 5771 5772 5774 5775 5777 5778 5780 5781 5783 5785 5787
5794 5792 5790 5787 5785 5783 5782 5780 5779 5777 5775 5774 5773 5772 5770 5768 5767 5766 5765 5765 5764 5764 5764 5764 5763 5763 5763 5763 5763 5762 5762 5762 5763 5764 5765 5766 5768 5769 5771 5773 5774 5776 5778
5791 5788 5786 5784 5781 5779 5778 5776 5775 5773 5772 5770 5768 5767 5765 5763 5762 5761 5760 5759 5758 5758 5758 5757 5757 5756 5756 5755 5755 5754 5754 5754 5754 5755 5756 5757 5759 5760 5762 5763 5765 5767 5769
5787 5785 5782 5780 5777 5776 5774 5773 5771 5769 5767 5765 5764 5762 5760 5758 5756 5755 5754 5753 5752 5751 5751 5751 5750 5749 5749 5748 5748 5747 5746 5746 5746 5747 5747 5749 5750 5751 5753 5754 5756 5758 5760
5784 5782 5779 5776 5774 5772 5770 5768 5767 5765 5763 5760 5758 5756 5754 5752 5751 5749 5748 5746 5745 5745 5744 5743 5742 5742 5741 5741 5740 5739 5738 5738 5738 5738 5739 5740 5741 5742 5744 5745 5747 5748 5750
5781 5778 5775 5773 5770 5768 5766 5764 5762 5760 5758 5755 5753 5751 5749 5747 5745 5743 5741 5739 5738 5737 5737 5736 5735 5734 5734 5733 5732 5731 5731 5730 5730 5730 5730 5731 5732 5733 5734 5736 5737 5739 5741
5777 5774 5772 5769 5767 5764 5762 5760 5758 5755 5753 5751 5748 5746 5743 5741 5739 5736 5734 5732 5731 5730 5729 5728 5727 5726 5726 5725 5724 5724 5723 5722 5722 5722 5722 5722 5723 5724 5725 5727 5728 5730 5732
5773 5770 5768 5765 5763 5760 5758 5755 5753 5751 5748 5746 5743 5741 5738 5736 5733 5730 5728 5726 5724 5723 5722 5721 5720 5719 5718 5716 5716 5715 5715 5714 5713 5713 5713 5714 5714 5715 5716 5718 5719 5721 5723
5769 5766 5764 5761 5758 5756 5754 5751 5749 5746 5743 5741 5739 5736 5733 5730 5727 5724 5722 5719 5718 5716 5715 5713 5712 5711 5710 5709 5708 5707 5707 5706 5705 5705 5705 5706 5706 5707 5707 5709 5710 5711 5713
5765 5762 5760 5757 5754 5752 5750 5747 5744 5741 5739 5736 5734 5731 5728 5725 5722 5719 5716 5714 5712 5710 5708 5706 5705 5704 5703 5701 5700 5699 5698 5698 5698 5698 5697 5697 5697 5698 5699 5700 5701 5702 5703
5760 5758 5756 5753 5750 5748 5745 5743 5740 5737 5734 5731 5728 5725 5722 5719 5717 5714 5711 5709 5706 5704 5702 5700 5698 5697 5695 5694 5693 5692 5691 5690 5690 5689 5689 5689 5689 5689 5690 5690 5691 5692 5693
5756 5753 5751 5749 5746 5743 5740 5738 5735 5732 5729 5726 5723 5720 5717 5714 5711 5709 5706 5704 5701 5699 5697 5694 5693 5691 5689 5687 5686 5685 5684 5683 5683 5682 5681 5681 5681 5681 5681 5681 5682 5683 5684
5751 5749 5746 5744 5741 5738 5735 5733 5730 5727 5724 5721 5718 5715 5712 5709 5706 5704 5701 5699 5696 5694 5691 5689 5687 5685 5684 5682 5680 5679 5678 5677 5676 5675 5674 5674 5674 5673 5673 5673 5673 5674 5675
5746 5743 5741 5739 5736 5733 5730 5727 5724 5721 5719 5716 5713 5710 5707 5704 5701 5699 5696 5694 5692 5689 5686 5684 5682 5680 5678 5676 5674 5673 5672 5671 5670 5669 5668 5667 5667 5666 5666 5666 5666 5666 5666